Regional Weather Roundup
Issued by NWS

Home | Current Version | Previous Version | Graphics & Text | Print | Product List | Glossary On
Versions: 1 2 3 4 5 6 7 8 9 10 11 12 13 14 15 16 17 18 19 20 21 22 23 24 25 26 27 28 29 30 31 32 33 34 35 36 37 38 39 40 41 42 43 44 45 46 47 48 49 50
000
ASUS43 KOAX 130610
RWRNE

WEATHER ROUNDUP FOR NEBRASKA
NATIONAL WEATHER SERVICE OMAHA NE
1200 AM CST WED DEC 13 2017

NOTES: SATELLITE DATA IS BEING USED TO AUGMENT CLOUD COVER ABOVE
       12000 FEET.
       "FAIR" INDICATES FEW OR NO CLOUDS BELOW 12,000 FEET WITH NO
       SIGNIFICANT WEATHER AND/OR OBSTRUCTIONS TO VISIBILITY.


NEZ001>004-019>022-054>056-130700-
NEBRASKA PANHANDLE

CITY           SKY/WX    TMP DP  RH WIND       PRES   REMARKS
SCOTTSBLUFF    CLOUDY    42  15  33 W15       30.01S
6HR MIN TEMP:  31; 6HR MAX TEMP:  53;

ALLIANCE       CLOUDY    30  17  58 W13       29.95S WCI  20
6HR MIN TEMP:  25; 6HR MAX TEMP:  42;

CHADRON        CLOUDY    48  16  27 W21G29    29.94S
6HR MIN TEMP:  34; 6HR MAX TEMP:  51;

GORDON         CLOUDY    44  20  38 W17       29.89S
6HR MIN TEMP:  33; 6HR MAX TEMP:  47;

KIMBALL        CLOUDY    45   8  22 NW20G26   30.04R
SIDNEY         CLOUDY    40  10  29 W10       30.00S WCI  33
6HR MIN TEMP:  38; 6HR MAX TEMP:  50;

$$

NEZ057>060-069>072-079>082-130700-
SOUTHWEST NEBRASKA

CITY           SKY/WX    TMP DP  RH WIND       PRES   REMARKS
NORTH PLATTE   CLOUDY    28  20  71 NW9       29.88S WCI  19
6HR MIN TEMP:  25; 6HR MAX TEMP:  42;

IMPERIAL       CLEAR     43  14  31 W14       29.94S
6HR MIN TEMP:  40; 6HR MAX TEMP:  51;

LEXINGTON      CLOUDY    30  19  64 NW9       29.84F WCI  22
MCCOOK         CLEAR     41  19  41 W12       29.90S
6HR MIN TEMP:  34; 6HR MAX TEMP:  53;

OGALLALA       CLOUDY    35  15  44 W7        29.93F WCI  29
$$

NEZ005>010-023>029-035>040-094-130700-
NORTH CENTRAL NEBRASKA

CITY           SKY/WX    TMP DP  RH WIND       PRES   REMARKS
VALENTINE      CLOUDY    43  23  45 W13       29.80F
6HR MIN TEMP:  30; 6HR MAX TEMP:  47;

AINSWORTH      CLOUDY    45  23  42 W20       29.80R
BROKEN BOW     CLEAR     42  20  41 W12       29.80F
6HR MIN TEMP:  31; 6HR MAX TEMP:  47;

O`NEILL        CLOUDY    41  24  49 W10       29.73F
ORD            CLOUDY    31  20  63 NW3       29.77F
6HR MIN TEMP:  29; 6HR MAX TEMP:  43;

THEDFORD       CLOUDY    44  21  39 W13       29.85S
$$

NEZ041-046>049-061>064-073>077-083>087-130700-
SOUTH CENTRAL NEBRASKA

CITY           SKY/WX    TMP DP  RH WIND       PRES   REMARKS
GRAND ISLAND   CLEAR     38  21  50 SW13      29.78F WCI  30
6HR MIN TEMP:  36; 6HR MAX TEMP:  43;

AURORA         CLEAR     37  20  49 SW13      29.78F WCI  29
HASTINGS       CLEAR     39  19  44 SW9       29.80F WCI  33
6HR MIN TEMP:  38; 6HR MAX TEMP:  43;

HEBRON         CLEAR     40  23  49 SW10      29.82F WCI  34
HOLDREGE       CLEAR     42  22  44 W13       29.83F
KEARNEY        CLEAR     42  20  41 W7        29.82F
YORK           CLEAR     37  23  56 CALM      29.78F
$$

NEZ011>018-030>034-042>045-130700-
NORTHEAST NEBRASKA

CITY           SKY/WX    TMP DP  RH WIND       PRES   REMARKS
NORFOLK        CLOUDY    37  21  52 SW12      29.70F WCI  29
6HR MIN TEMP:  36; 6HR MAX TEMP:  42;

ALBION         CLEAR     40  22  48 NW8       29.75F WCI  35
BLAIR          CLEAR     37  26  64 SW10      29.74F WCI  30
COLUMBUS       CLOUDY    37  21  52 SW8       29.75F WCI  31
FREMONT        CLEAR     38  22  53 SW5       29.74F WCI  35
TEKAMAH        CLEAR     28  18  66 S7        29.72F WCI  21
6HR MIN TEMP:  26; 6HR MAX TEMP:  33;

WAYNE          PTCLDY    39  17  40 SW12      29.69F WCI  32
$$

NEZ050>053-065>068-078-088>093-130700-
SOUTHEAST NEBRASKA

CITY           SKY/WX    TMP DP  RH WIND       PRES   REMARKS
LINCOLN        CLEAR     35  24  64 S5        29.79F WCI  31
6HR MIN TEMP:  32; 6HR MAX TEMP:  40;

OMAHA EPPLEY   CLEAR     31  23  72 S9        29.77F WCI  23
6HR MIN TEMP:  28; 6HR MAX TEMP:  37;

BEATRICE       CLEAR     35  25  68 S3        29.82F
FALLS CITY     CLEAR     28  23  81 E3        29.83F
6HR MIN TEMP:  28; 6HR MAX TEMP:  37;

NEBRASKA CITY  CLEAR     36  27  71 SW13      29.79F WCI  27
PLATTSMOUTH    CLEAR     38  27  62 S9        29.77F WCI  32
$$

NEZ044-045-051>053-067-130700-
OMAHA AREA

CITY           SKY/WX    TMP DP  RH WIND       PRES   REMARKS
OMAHA EPPLEY   CLEAR     31  23  72 S9        29.77F WCI  23
6HR MIN TEMP:  28; 6HR MAX TEMP:  37;

BLAIR          CLEAR     37  26  64 SW10      29.74F WCI  30
FREMONT        CLEAR     38  22  53 SW5       29.74F WCI  35
MILLARD        CLEAR     33  25  72 CALM      29.77F
OFFUTT AFB     CLEAR     27  22  81 E5        29.77F WCI  22
PLATTSMOUTH    CLEAR     38  27  62 S9        29.77F WCI  32
WAHOO          FAIR      37  23  56 SW6       29.76F WCI  32
$$




USA.gov is the U.S. government's official web portal to all federal, state and local government web resources and services.